[keps] orb10007.amsat

Ray Hoad r.hoad at att.net
Thu Jan 7 19:26:00 PST 2010


SB KEPS @ AMSAT  $ORB10007.O
Orbital Elements  10007.OSCAR

HR AMSAT ORBITAL ELEMENTS FOR OSCAR SATELLITES
FROM WA5QGD FORT WORTH,TX January 7, 2010
Send Subscribe/unsubscribe to KEPS at 
http://www.amsat.org/mailman/listinfo/keps
BID: ORB10007.O
TO ALL RADIO AMATEURS BT

Satellite: AO-07
Catalog number: 07530
Epoch time:      10007.63241875
Element set:     673
Inclination:      101.4115 deg
RA of node:       029.6742 deg
Eccentricity:    0.0011844
Arg of perigee:   228.7434 deg
Mean anomaly:     131.2619 deg
Mean motion:   12.53577456 rev/day
Decay rate:       -2.7e-07 rev/day^2
Epoch rev:           60833
Checksum:              282

Satellite: FO-29
Catalog number: 24278
Epoch time:      10007.62853288
Element set:     217
Inclination:      098.5218 deg
RA of node:       218.8711 deg
Eccentricity:    0.0350563
Arg of perigee:   180.2310 deg
Mean anomaly:     179.8720 deg
Mean motion:   13.52947066 rev/day
Decay rate:       -3.2e-07 rev/day^2
Epoch rev:           66139
Checksum:              311

Satellite: SO-33
Catalog number: 25509
Epoch time:      10006.94207377
Element set:    0625
Inclination:      031.4373 deg
RA of node:       340.3339 deg
Eccentricity:    0.0354557
Arg of perigee:   319.9667 deg
Mean anomaly:     037.5283 deg
Mean motion:   14.28275786 rev/day
Decay rate:        5.4e-07 rev/day^2
Epoch rev:           58498
Checksum:              334

Satellite: RS-22
Catalog number: 27939
Epoch time:      10007.57906057
Element set:     981
Inclination:      097.9146 deg
RA of node:       239.6487 deg
Eccentricity:    0.0013012
Arg of perigee:   203.7785 deg
Mean anomaly:     156.2811 deg
Mean motion:   14.63371400 rev/day
Decay rate:        7.8e-07 rev/day^2
Epoch rev:           33546
Checksum:              313

Satellite: VO-52
Catalog number: 28650
Epoch time:      10007.54483528
Element set:     405
Inclination:      097.7154 deg
RA of node:       067.0630 deg
Eccentricity:    0.0028267
Arg of perigee:   082.1239 deg
Mean anomaly:     278.3179 deg
Mean motion:   14.81666923 rev/day
Decay rate:       4.55e-06 rev/day^2
Epoch rev:           25290
Checksum:              314

Satellite: SO-67
Catalog number: 35870
Epoch time:      10007.72266110
Element set:     332
Inclination:      097.3564 deg
RA of node:       060.6041 deg
Eccentricity:    0.0010164
Arg of perigee:   260.6080 deg
Mean anomaly:     247.4897 deg
Mean motion:   15.22910171 rev/day
Decay rate:       4.45e-06 rev/day^2
Epoch rev:            1704
Checksum:              267

Satellite: HO-68
Catalog number: 36122
Epoch time:      10007.71892420
Element set:      70
Inclination:      100.4950 deg
RA of node:       069.6266 deg
Eccentricity:    0.0007679
Arg of perigee:   343.7517 deg
Mean anomaly:     016.3354 deg
Mean motion:   13.16279921 rev/day
Decay rate:       -4.5e-07 rev/day^2
Epoch rev:             310
Checksum:              277

/EX
SB KEPS @ AMSAT  $ORB10007.D
Orbital Elements  10007.MICROS

HR AMSAT ORBITAL ELEMENTS FOR THE MICROSATS
FROM WA5QGD FORT WORTH,TX January 7, 2010
Send Subscribe/unsubscribe to KEPS at 
http://www.amsat.org/mailman/listinfo/keps
BID: ORB10007.D
TO ALL RADIO AMATEURS BT

Satellite: UO-11
Catalog number: 14781
Epoch time:      10006.14376814
Element set:    0146
Inclination:      098.0794 deg
RA of node:       057.1945 deg
Eccentricity:    0.0009855
Arg of perigee:   046.2635 deg
Mean anomaly:     313.9366 deg
Mean motion:   14.79757268 rev/day
Decay rate:      -2.44e-06 rev/day^2
Epoch rev:           38784
Checksum:              334

Satellite: AO-16
Catalog number: 20439
Epoch time:      10007.81484292
Element set:     791
Inclination:      098.3097 deg
RA of node:       332.2276 deg
Eccentricity:    0.0010164
Arg of perigee:   285.6366 deg
Mean anomaly:     074.3702 deg
Mean motion:   14.31844039 rev/day
Decay rate:       -2.2e-07 rev/day^2
Epoch rev:            4243
Checksum:              286

Satellite: LO-19
Catalog number: 20442
Epoch time:      10006.86029312
Element set:    0703
Inclination:      098.2713 deg
RA of node:       337.7708 deg
Eccentricity:    0.0011075
Arg of perigee:   282.5701 deg
Mean anomaly:     077.4254 deg
Mean motion:   14.32077510 rev/day
Decay rate:       -3.4e-07 rev/day^2
Epoch rev:           04246
Checksum:              268

Satellite: AO-27
Catalog number: 22825
Epoch time:      10006.79208432
Element set:    0428
Inclination:      098.4672 deg
RA of node:       319.0914 deg
Eccentricity:    0.0008904
Arg of perigee:   029.5641 deg
Mean anomaly:     330.6037 deg
Mean motion:   14.29283179 rev/day
Decay rate:        6.7e-07 rev/day^2
Epoch rev:           84899
Checksum:              325

Satellite: IO-26
Catalog number: 22826
Epoch time:      10007.79620651
Element set:     161
Inclination:      098.4593 deg
RA of node:       320.7308 deg
Eccentricity:    0.0009400
Arg of perigee:   022.0066 deg
Mean anomaly:     338.1519 deg
Mean motion:   14.29536691 rev/day
Decay rate:       -9.0e-08 rev/day^2
Epoch rev:           84924
Checksum:              295

Satellite: GO-32
Catalog number: 25397
Epoch time:      10006.53855906
Element set:    0082
Inclination:      098.3169 deg
RA of node:       022.8690 deg
Eccentricity:    0.0001749
Arg of perigee:   045.6855 deg
Mean anomaly:     314.4454 deg
Mean motion:   14.23168173 rev/day
Decay rate:      -2.26e-06 rev/day^2
Epoch rev:           59705
Checksum:              314

Satellite: NO-44
Catalog number: 26931
Epoch time:      10006.80399849
Element set:    0358
Inclination:      067.0526 deg
RA of node:       259.7623 deg
Eccentricity:    0.0006914
Arg of perigee:   264.3454 deg
Mean anomaly:     095.6868 deg
Mean motion:   14.29578131 rev/day
Decay rate:      -1.10e-06 rev/day^2
Epoch rev:           43168
Checksum:              328

Satellite: SO-50
Catalog number: 27607
Epoch time:      10006.46595008
Element set:      72
Inclination:      064.5585 deg
RA of node:       127.7050 deg
Eccentricity:    0.0043120
Arg of perigee:   148.4983 deg
Mean anomaly:     211.8718 deg
Mean motion:   14.71487059 rev/day
Decay rate:       -9.9e-07 rev/day^2
Epoch rev:           37858
Checksum:              317

Satellite: CO-55
Catalog number: 27844
Epoch time:      10006.53368056
Element set:    0752
Inclination:      098.7106 deg
RA of node:       017.8172 deg
Eccentricity:    0.0009214
Arg of perigee:   279.1843 deg
Mean anomaly:     080.8289 deg
Mean motion:   14.20676926 rev/day
Decay rate:        4.8e-07 rev/day^2
Epoch rev:           33813
Checksum:              318

Satellite: CO-57
Catalog number: 27848
Epoch time:      10007.73734849
Element set:     702
Inclination:      098.7160 deg
RA of node:       018.0767 deg
Eccentricity:    0.0008928
Arg of perigee:   279.4350 deg
Mean anomaly:     080.5805 deg
Mean motion:   14.20473591 rev/day
Decay rate:        5.0e-08 rev/day^2
Epoch rev:           33826
Checksum:              321

Satellite: AO-51
Catalog number: 28375
Epoch time:      10006.53268591
Element set:    0574
Inclination:      098.0533 deg
RA of node:       009.3074 deg
Eccentricity:    0.0082948
Arg of perigee:   228.0438 deg
Mean anomaly:     131.3663 deg
Mean motion:   14.40664677 rev/day
Decay rate:        8.0e-08 rev/day^2
Epoch rev:           29023
Checksum:              306

Satellite: CO-56
Catalog number: 28941
Epoch time:      09297.68475575
Element set:     556
Inclination:      098.0955 deg
RA of node:       138.9518 deg
Eccentricity:    0.0011688
Arg of perigee:   319.8691 deg
Mean anomaly:     040.7485 deg
Mean motion:   16.46998778 rev/day
Decay rate:  1.4491492e-01 rev/day^2
Epoch rev:           20790
Checksum:              407

Satellite: GENESAT1
Catalog number: 29655
Epoch time:      10006.32159783
Element set:    0912
Inclination:      040.0209 deg
RA of node:       345.6268 deg
Eccentricity:    0.0005320
Arg of perigee:   240.6856 deg
Mean anomaly:     119.3428 deg
Mean motion:   15.71879384 rev/day
Decay rate:     2.2792e-04 rev/day^2
Epoch rev:           17437
Checksum:              307

Satellite: CP3
Catalog number: 31129
Epoch time:      10007.81556225
Element set:     449
Inclination:      097.9630 deg
RA of node:       055.7932 deg
Eccentricity:    0.0103017
Arg of perigee:   011.7083 deg
Mean anomaly:     348.6440 deg
Mean motion:   14.52197454 rev/day
Decay rate:        9.0e-07 rev/day^2
Epoch rev:           14458
Checksum:              287

Satellite: CO-65
Catalog number: 32785
Epoch time:      10007.22850728
Element set:     571
Inclination:      097.9178 deg
RA of node:       074.2202 deg
Eccentricity:    0.0016082
Arg of perigee:   088.7609 deg
Mean anomaly:     271.5440 deg
Mean motion:   14.81566915 rev/day
Decay rate:       4.10e-06 rev/day^2
Epoch rev:            9165
Checksum:              309

Satellite: KKS-1
Catalog number: 33493
Epoch time:      10007.71531435
Element set:      96
Inclination:      098.0698 deg
RA of node:       126.0358 deg
Eccentricity:    0.0019003
Arg of perigee:   302.2914 deg
Mean anomaly:     057.6470 deg
Mean motion:   14.80815274 rev/day
Decay rate:       3.00e-06 rev/day^2
Epoch rev:            5173
Checksum:              272

Satellite: SOHLA-1
Catalog number: 33496
Epoch time:      10006.78241139
Element set:     993
Inclination:      098.0480 deg
RA of node:       118.0797 deg
Eccentricity:    0.0006725
Arg of perigee:   005.6802 deg
Mean anomaly:     354.4462 deg
Mean motion:   14.69462564 rev/day
Decay rate:       -1.9e-07 rev/day^2
Epoch rev:            5117
Checksum:              303

/EX
SB KEPS @ AMSAT  $ORB10007.W
Orbital Elements  10007.WEATHER

HR AMSAT ORBITAL ELEMENTS FOR WEATHER SATELLITES
FROM WA5QGD FORT WORTH,TX January 7, 2010
Send Subscribe/unsubscribe to KEPS at 
http://www.amsat.org/mailman/listinfo/keps
BID: ORB10007.W
TO ALL RADIO AMATEURS BT

